{"data":{"norad_id":85027,"epoch":"2026-05-23T01:31:50.757888Z","epoch_age_seconds":243095,"freshness":"STALE","line1":"1 85027U          26143.06378192  .00000090  00000+0  16112-3 0  9996","line2":"2 85027  66.0423  66.4537 0166497 102.5825 259.3916 13.74314442626789","mean_motion":13.74314442,"eccentricity":0.0166497,"inclination_deg":66.0423,"raan_deg":66.4537,"arg_perigee_deg":102.5825,"mean_anomaly_deg":259.3916,"bstar":0.00016112,"rev_number":62678,"period_min":104.77951449775,"perigee_km":861.54275485808,"apogee_km":1106.701567571,"semimajor_km":7362.2591612146,"source":"CELESTRAK","updated_at":"2026-05-25T13:38:11.429446Z"}}